Location: Newark
(40.3500°N, 15.2333°E)
Time: 01:58:57
(UTC+00:00)

Vanguard 1 - Pass Details

Date: 28 January 2020
Orbit: 650 x 3833 km, 34.2° (Epoch: 20 February)

Event Time Altitude Azimuth Distance (km) Brightness Sun altitude
Rises 13:55:47 0° 227° (SW) 3,740 14.7 20.1°
Reaches altitude 10° 13:59:18 10° 212° (SSW) 2,447 14.2 19.7°
Maximum altitude 14:03:21 22° 162° (SSE) 1,520 11.6 19.1°
Drops below altitude 10° 14:06:48 10° 111° (ESE) 2,050 11.6 18.7°
Sets 14:09:26 0° 94° (E) 2,969 12.2 18.3°
